Flag for U.S.A. Weather past 2 weeks in St. Croix Falls, Wisconsin, U.S.A.

37 °F


Feels Like: 29 °F
Forecast: 34 / 44 °F
Wind: 13 mph from Southeast

Location: L O Simenstad Municipal Airport

Current Time: Nov 24, 2015 at 8:58:19 PM

Latest Report: Nov 24, 2015 at 8:15 PM

Visibility: 10 mi

Pressure: 30.05 "Hg

Humidity: 71%

Dew point: 28 °F

Location of St. Croix FallsLocation

Historic Weather in St. Croix Falls — Graph


St. Croix Falls temperature yesterday

Maximum temperature yesterday: 46 °F (at 2:55 PM)
Minimum temperature yesterday: 24 °F (at 11:55 PM)
Average temperature yesterday: 33 °F

Past Weeks' High & Low Weather Summary

High60 °F (Nov 15, 2:35 PM)100% (Nov 11, 5:55 PM)30.34 "Hg (Nov 11, 5:55 PM)
Low16 °F (Nov 21, 7:15 AM)35% (Nov 10, 12:35 PM)29.11 "Hg (Nov 18, 12:35 PM)
Average39 °F78%29.90 "Hg
* Reported Nov 9 7:15 PM — Nov 24 7:55 PM, St. Croix Falls, Weather by CustomWeather, © 2015

Note: Actual official high and low records may vary slightly from our data, if they occured in-between our weather recording intervals... More about our weather records


St. Croix Falls weather history for previous 24 hours

Time TempWeatherWind HumidityBarometerVisibility
7:55 PM
Tue, Nov 24
37 °FClear.12 mph69%30.05 "Hg10 mi
7:35 PM37 °FClear.12 mph69%30.06 "Hg10 mi
7:15 PM37 °FClear.12 mph70%30.06 "Hg10 mi
6:15 PM37 °FClear.10 mph71%30.09 "Hg10 mi
5:55 PM37 °FClear.9 mph72%30.10 "Hg10 mi
5:35 PM37 °FClear.8 mph73%30.10 "Hg10 mi
5:15 PM38 °FClear.8 mph70%30.11 "Hg10 mi
4:55 PM37 °FClear.8 mph71%30.11 "Hg10 mi
4:15 PM40 °FSunny.10 mph64%30.12 "Hg10 mi
3:55 PM41 °FSunny.14 mph62%30.13 "Hg10 mi
3:35 PM42 °FSunny.12 mph60%30.13 "Hg10 mi
3:15 PM43 °FSunny.13 mph59%30.13 "Hg10 mi
2:55 PM43 °FSunny.15 mph58%30.13 "Hg10 mi
2:15 PM43 °FSunny.14 mph59%30.14 "Hg10 mi
1:55 PM43 °FSunny.14 mph59%30.15 "Hg10 mi
1:35 PM43 °FSunny.15 mph59%30.16 "Hg10 mi
1:15 PM43 °FSunny.13 mph60%30.18 "Hg10 mi
12:55 PM43 °FSunny.13 mph59%30.18 "Hg10 mi
12:35 PM42 °FSunny.16 mph60%30.19 "Hg10 mi
12:15 PM42 °FSunny.15 mph61%30.20 "Hg10 mi
11:55 AM42 °FSunny.12 mph62%30.21 "Hg10 mi
11:15 AM40 °FSunny.9 mph66%30.23 "Hg10 mi
10:55 AM39 °FSunny.12 mph68%30.24 "Hg10 mi
10:15 AM38 °FSunny.15 mph72%30.25 "Hg10 mi
9:55 AM36 °FSunny.14 mph76%30.25 "Hg10 mi
9:35 AM35 °FSunny.9 mph92%30.24 "Hg10 mi
9:15 AM34 °FSunny.10 mph97%30.23 "Hg10 mi
8:55 AM33 °FSunny.9 mph100%30.22 "Hg10 mi
8:35 AM32 °FSunny.9 mph100%30.23 "Hg10 mi
8:15 AM32 °FSunny.7 mph100%30.23 "Hg10 mi
7:55 AM31 °FSunny.7 mph100%30.23 "Hg10 mi
7:15 AM31 °FClear.6 mph100%30.23 "Hg10 mi
6:55 AM32 °FPassing clouds.7 mph100%30.23 "Hg10 mi
6:35 AM32 °FOvercast.7 mph100%30.23 "Hg10 mi
6:15 AM31 °FOvercast.6 mph100%30.22 "Hg10 mi
5:55 AM29 °FOvercast.3 mph100%30.23 "Hg10 mi
5:15 AM27 °FPassing clouds.No wind100%30.25 "Hg10 mi
4:55 AM27 °FPassing clouds.No wind100%30.25 "Hg10 mi
4:35 AM27 °FPassing clouds.No wind100%30.25 "Hg10 mi
4:15 AM26 °FClear.No wind100%30.23 "Hg10 mi
3:55 AM25 °FClear.No wind100%30.23 "Hg10 mi
3:35 AM25 °FClear.No wind100%30.23 "Hg10 mi
3:15 AM24 °FClear.No wind100%30.23 "Hg10 mi
2:55 AM24 °FClear.No wind100%30.23 "Hg10 mi
2:35 AM24 °FClear.No wind100%30.24 "Hg10 mi
2:15 AM23 °FClear.No wind100%30.23 "Hg10 mi
1:55 AM23 °FClear.No wind100%30.23 "Hg10 mi
1:15 AM23 °FClear.No wind100%30.22 "Hg10 mi
12:55 AM24 °FClear.No wind100%30.21 "Hg10 mi
12:15 AM24 °FClear.No wind100%30.21 "Hg10 mi
11:55 PM
Mon, Nov 23
24 °FClear.No wind100%30.21 "Hg10 mi
11:35 PM24 °FClear.No wind100%30.20 "Hg10 mi
11:15 PM25 °FClear.No wind100%30.20 "Hg10 mi
10:55 PM27 °FClear.3 mph100%30.19 "Hg10 mi
10:15 PM25 °FClear.No wind100%30.18 "Hg10 mi
9:55 PM26 °FClear.No wind100%30.18 "Hg10 mi
8:55 PM28 °FClear.No wind100%30.15 "Hg10 mi
8:35 PM27 °FClear.No wind100%30.15 "Hg10 mi
8:15 PM28 °FClear.No wind100%30.15 "Hg10 mi
Weather by CustomWeather, © 2015

See weather overviewHow to use our weather pages